Regional Weather Roundup
Issued by NWS

Home | Current Version | Previous Version | Text Only | Print | Product List | Glossary On
Versions: 1 2 3 4 5 6 7 8 9 10 11 12 13 14 15 16 17 18 19 20 21 22 23 24 25 26 27
000
ASUS45 KREV 202110
RWRNV
NEVADA REGIONAL WEATHER ROUNDUP
NATIONAL WEATHER SERVICE RENO NV
100 PM PST SAT JAN 20 2018

NOTE: "FAIR" INDICATES FEW OR NO CLOUDS BELOW 12,000 FEET WITH NO
SIGNIFICANT WEATHER AND/OR OBSTRUCTIONS TO VISIBILITY.

NVZ001-003-004-202200-
WESTERN NEVADA

CITY           SKY/WX    TMP DP  RH WIND       PRES   REMARKS
RENO           MOSUNNY   39  18  42 CALM      30.07F
CARSON CITY    FAIR      37  14  38 NW7       30.07F
MINDEN         FAIR      34  25  69 SW6       30.08F
FALLON         MOSUNNY   40 -23   6 N8        30.06F
LOVELOCK       PTSUNNY   39  18  42 NW3       30.06F
HAWTHORNE      SUNNY     39  16  38 N12       30.03F
$$

NVZ002-CAZ072-073-202200-
NORTHERN AND CENTRAL SIERRA

CITY           SKY/WX    TMP DP  RH WIND       PRES   REMARKS
S. LAKE TAHOE  SUNNY     32  13  45 MISG      30.00F
TRUCKEE        MOSUNNY   28  19  69 CALM      30.04F
SQUAW VLY 8000 NOT AVBL
SUSANVILLE     MOSUNNY   37  21  52 CALM      30.11F
BLUE CANYON    SUNNY     37  17  44 VRB7      30.05S
MAMMOTH LAKES  CLOUDY    32   9  39 NW7       29.97F
$$

NVZ030-031-036-202200-
NORTHERN NEVADA

CITY           SKY/WX    TMP DP  RH WIND       PRES   REMARKS
ELKO           PTSUNNY   32  17  54 VRB6      29.96S
WINNEMUCCA     PTSUNNY   37  17  44 N6        30.04F
WENDOVER       CLOUDY    36  19  50 N13       29.92F
$$

NVZ035-037-202200-
CENTRAL NEVADA

CITY           SKY/WX    TMP DP  RH WIND       PRES   REMARKS
ELY            CLOUDY    23  18  81 N14       29.88S
EUREKA           N/A     28  19  69 N12       29.94F
$$

NVZ013-014-202200-
SOUTH CENTRAL NEVADA

CITY           SKY/WX    TMP DP  RH WIND       PRES   REMARKS
TONOPAH        MOSUNNY   36  18  48 N22       29.93S
$$

NVZ017-020-022-202200-
SOUTHERN NEVADA

CITY           SKY/WX    TMP DP  RH WIND       PRES   REMARKS
LAS VEGAS      PTSUNNY   53  26  35 N13       29.84F
N. LAS VEGAS   PTSUNNY   52  25  35 NW20G30   29.84S
NELLIS AFB     CLOUDY    52  31  45 N13       29.85S
HENDERSON      LGT RAIN  50  28  42 W5        29.86F
MERCURY        CLOUDY    47  20  34 N13       29.89S
$$




USA.gov is the U.S. government's official web portal to all federal, state and local government web resources and services.